When you browse on this site, cookies collect data to enhance your experience and personalize the content and advertising you see.
Visit our Privacy Policy to learn more. By continuing to use the site, you agree to this use of cookies and data.
  • In United Kingdom
  • List of Countries
  • For 7 days
  • Water Temperature
  • Satellite Maps
  • Weather Map
  • Weather Widgets
  • user-avatar
    Login

    Hourly Weather Francistown

    Today, 19 November, Monday

    Time Temperature Precipitation Wind Pressure Humidity
    00:00 +28°C° 0 mm 7 mps 677 mmHg 33%
    01:00 +27°C° 0 mm 7 mps 677 mmHg 37%
    02:00 +26°C° 0 mm 8 mps 678 mmHg 43%
    03:00 +24°C° 0 mm 8 mps 678 mmHg 49%
    04:00 +23°C° 0 mm 8 mps 678 mmHg 55%
    05:00 +22°C° 0 mm 8 mps 678 mmHg 61%
    06:00 +23°C° 0 mm 8 mps 679 mmHg 59%
    07:00 +24°C° 0 mm 8 mps 679 mmHg 57%
    08:00 +26°C° 0 mm 8 mps 680 mmHg 51%
    09:00 +28°C° 0 mm 8 mps 680 mmHg 43%
    10:00 +32°C° 0 mm 7 mps 680 mmHg 35%
    11:00 +34°C° 0 mm 7 mps 680 mmHg 26%
    12:00 +36°C° 0 mm 6 mps 679 mmHg 23%
    13:00 +38°C° 0 mm 6 mps 678 mmHg 19%
    14:00 +37°C° 0 mm 5 mps 678 mmHg 18%
    15:00 +38°C° 0 mm 6 mps 678 mmHg 19%
    16:00 +38°C° 0 mm 6 mps 677 mmHg 19%
    17:00 +36°C° 0 mm 6 mps 677 mmHg 19%
    18:00 +34°C° 0 mm 6 mps 677 mmHg 23%
    19:00 +33°C° 0 mm 5 mps 677 mmHg 28%
    20:00 +30°C° 0 mm 5 mps 677 mmHg 32%
    21:00 +29°C° 0 mm 5 mps 677 mmHg 35%
    22:00 +28°C° 0 mm 5 mps 677 mmHg 39%
    23:00 +27°C° 0 mm 5 mps 678 mmHg 43%

    Tomorrow, 20 November, Tuesday

    Time Temperature Precipitation Wind Pressure Humidity
    00:00 +26°C° 0 mm 5 mps 677 mmHg 46%
    01:00 +25°C° 0 mm 4 mps 677 mmHg 50%
    02:00 +25°C° 0 mm 4 mps 676 mmHg 54%
    03:00 +24°C° 0 mm 3 mps 676 mmHg 56%
    04:00 +22°C° 0 mm 3 mps 676 mmHg 58%
    05:00 +22°C° 0 mm 3 mps 676 mmHg 60%
    06:00 +25°C° 0 mm 3 mps 677 mmHg 52%
    07:00 +27°C° 0 mm 3 mps 677 mmHg 44%
    08:00 +30°C° 0 mm 4 mps 678 mmHg 36%
    09:00 +33°C° 0 mm 3 mps 678 mmHg 30%
    10:00 +35°C° 0 mm 3 mps 678 mmHg 24%
    11:00 +38°C° 0 mm 2 mps 678 mmHg 17%
    12:00 +39°C° 0 mm 2 mps 678 mmHg 15%
    13:00 +40°C° 0 mm 2 mps 677 mmHg 13%
    14:00 +41°C° 0 mm 1 mps 676 mmHg 11%
    15:00 +41°C° 0 mm 1 mps 676 mmHg 11%
    16:00 +40°C° 0 mm 2 mps 675 mmHg 11%
    17:00 +40°C° 0 mm 2 mps 674 mmHg 11%
    18:00 +38°C° 0 mm 2 mps 674 mmHg 12%
    19:00 +36°C° 0 mm 2 mps 674 mmHg 14%
    20:00 +34°C° 0 mm 2 mps 674 mmHg 15%
    21:00 +34°C° 0 mm 3 mps 674 mmHg 16%
    22:00 +33°C° 0 mm 3 mps 674 mmHg 17%
    23:00 +32°C° 0 mm 4 mps 675 mmHg 18%

    Day after tomorrow, 21 November, Wednesday

    Time Temperature Precipitation Wind Pressure Humidity
    00:00 +32°C° 0 mm 4 mps 674 mmHg 20%
    01:00 +30°C° 0 mm 4 mps 674 mmHg 21%
    02:00 +29°C° 0 mm 4 mps 674 mmHg 22%
    03:00 +28°C° 0 mm 3 mps 674 mmHg 24%
    04:00 +27°C° 0 mm 2 mps 674 mmHg 27%
    05:00 +26°C° 0 mm 1 mps 674 mmHg 29%
    06:00 +28°C° 0 mm 2 mps 675 mmHg 27%
    07:00 +30°C° 0 mm 2 mps 675 mmHg 24%
    08:00 +32°C° 0 mm 2 mps 676 mmHg 22%
    09:00 +35°C° 0 mm 2 mps 676 mmHg 20%
    10:00 +36°C° 0 mm 3 mps 676 mmHg 19%
    11:00 +38°C° 0 mm 3 mps 676 mmHg 17%
    12:00 +39°C° 0 mm 3 mps 676 mmHg 16%
    13:00 +39°C° 0 mm 3 mps 675 mmHg 16%
    14:00 +41°C° 0 mm 4 mps 675 mmHg 15%
    15:00 +39°C° 0 mm 3 mps 674 mmHg 15%
    16:00 +39°C° 0 mm 3 mps 674 mmHg 16%
    17:00 +38°C° 0 mm 3 mps 674 mmHg 16%
    18:00 +37°C° 0.1 mm 3 mps 674 mmHg 20%
    19:00 +35°C° 0.1 mm 4 mps 674 mmHg 24%
    20:00 +33°C° 0.1 mm 4 mps 675 mmHg 27%
    21:00 +31°C° 0 mm 3 mps 675 mmHg 28%
    22:00 +31°C° 0 mm 3 mps 675 mmHg 29%
    23:00 +30°C° 0 mm 2 mps 675 mmHg 30%

    22 November, Thursday

    Time Temperature Precipitation Wind Pressure Humidity
    00:00 +30°C° 0 mm 2 mps 675 mmHg 30%
    01:00 +30°C° 0 mm 2 mps 674 mmHg 30%
    02:00 +30°C° 0 mm 2 mps 674 mmHg 29%
    03:00 +29°C° 0 mm 2 mps 674 mmHg 31%
    04:00 +28°C° 0 mm 2 mps 674 mmHg 32%
    05:00 +28°C° 0 mm 2 mps 674 mmHg 34%
    06:00 +29°C° 0 mm 3 mps 674 mmHg 34%
    07:00 +29°C° 0 mm 5 mps 675 mmHg 34%
    08:00 +30°C° 0 mm 6 mps 676 mmHg 34%
    09:00 +33°C° 0 mm 6 mps 676 mmHg 32%
    10:00 +35°C° 0 mm 6 mps 676 mmHg 30%
    11:00 +38°C° 0 mm 6 mps 676 mmHg 27%
    12:00 +39°C° 0 mm 5 mps 676 mmHg 25%
    13:00 +40°C° 0 mm 5 mps 675 mmHg 22%
    14:00 +41°C° 0 mm 4 mps 675 mmHg 20%
    15:00 +39°C° 0.6 mm 5 mps 674 mmHg 23%
    16:00 +36°C° 0.6 mm 5 mps 674 mmHg 27%
    17:00 +34°C° 0.6 mm 5 mps 673 mmHg 31%
    18:00 +33°C° 0.1 mm 5 mps 674 mmHg 35%
    19:00 +30°C° 0.1 mm 5 mps 675 mmHg 40%
    20:00 +29°C° 0.1 mm 5 mps 676 mmHg 44%
    21:00 +28°C° 0.5 mm 5 mps 676 mmHg 49%
    22:00 +27°C° 0.5 mm 5 mps 676 mmHg 53%
    23:00 +27°C° 0.5 mm 5 mps 677 mmHg 57%

    23 November, Friday

    Time Temperature Precipitation Wind Pressure Humidity
    00:00 +26°C° 0.2 mm 5 mps 676 mmHg 58%
    01:00 +26°C° 0.2 mm 5 mps 676 mmHg 60%
    02:00 +25°C° 0.2 mm 5 mps 675 mmHg 62%
    03:00 +25°C° 0.3 mm 5 mps 676 mmHg 65%
    04:00 +25°C° 0.3 mm 4 mps 676 mmHg 68%
    05:00 +23°C° 0.3 mm 4 mps 676 mmHg 70%
    06:00 +25°C° 0.1 mm 5 mps 677 mmHg 69%
    07:00 +25°C° 0.1 mm 5 mps 677 mmHg 68%
    08:00 +25°C° 0.1 mm 5 mps 678 mmHg 67%
    09:00 +27°C° 0.1 mm 5 mps 678 mmHg 62%
    10:00 +28°C° 0.1 mm 6 mps 678 mmHg 56%
    11:00 +29°C° 0.1 mm 6 mps 679 mmHg 51%
    12:00 +29°C° 0.4 mm 6 mps 678 mmHg 51%
    13:00 +29°C° 0.4 mm 6 mps 677 mmHg 51%
    14:00 +29°C° 0.4 mm 5 mps 677 mmHg 52%
    15:00 +29°C° 0.3 mm 6 mps 676 mmHg 53%
    16:00 +28°C° 0.3 mm 6 mps 676 mmHg 54%
    17:00 +28°C° 0.3 mm 6 mps 676 mmHg 55%
    18:00 +27°C° 1.4 mm 6 mps 677 mmHg 61%
    19:00 +26°C° 1.4 mm 5 mps 677 mmHg 67%
    20:00 +23°C° 1.4 mm 4 mps 678 mmHg 73%
    21:00 +23°C° 1.4 mm 5 mps 678 mmHg 76%
    22:00 +22°C° 1.4 mm 5 mps 678 mmHg 79%
    23:00 +22°C° 1.4 mm 6 mps 678 mmHg 82%

    24 November, Saturday

    Time Temperature Precipitation Wind Pressure Humidity
    00:00 +22°C° 0.1 mm 6 mps 677 mmHg 82%
    01:00 +21°C° 0.1 mm 6 mps 677 mmHg 82%
    02:00 +21°C° 0.1 mm 6 mps 676 mmHg 82%
    03:00 +21°C° 0 mm 6 mps 676 mmHg 82%
    04:00 +21°C° 0 mm 6 mps 676 mmHg 82%
    05:00 +21°C° 0 mm 5 mps 677 mmHg 82%
    06:00 +22°C° 0 mm 5 mps 677 mmHg 79%
    07:00 +22°C° 0 mm 5 mps 678 mmHg 76%
    08:00 +23°C° 0 mm 5 mps 678 mmHg 74%
    09:00 +25°C° 0.2 mm 5 mps 678 mmHg 69%
    10:00 +26°C° 0.2 mm 5 mps 678 mmHg 64%
    11:00 +28°C° 0.2 mm 5 mps 678 mmHg 59%
    12:00 +28°C° 1.4 mm 5 mps 678 mmHg 58%
    13:00 +28°C° 1.4 mm 5 mps 677 mmHg 57%
    14:00 +29°C° 1.4 mm 4 mps 677 mmHg 56%
    15:00 +29°C° 0.5 mm 5 mps 677 mmHg 57%
    16:00 +28°C° 0.5 mm 5 mps 677 mmHg 57%
    17:00 +28°C° 0.5 mm 5 mps 677 mmHg 58%
    18:00 +27°C° 0.8 mm 5 mps 677 mmHg 62%
    19:00 +26°C° 0.8 mm 5 mps 677 mmHg 65%
    20:00 +25°C° 0.8 mm 4 mps 677 mmHg 69%
    21:00 +25°C° 0 mm 4 mps 677 mmHg 71%
    22:00 +23°C° 0 mm 4 mps 677 mmHg 73%
    23:00 +23°C° 0 mm 4 mps 678 mmHg 74%
    Show more